Regional Weather Roundup
Issued by NWS

Home | Current Version | Previous Version | Graphics & Text | Print | Product List | Glossary On
Versions: 1 2 3 4 5 6 7 8 9 10 11 12 13 14 15 16 17 18 19 20 21 22 23 24 25 26 27 28 29 30 31 32 33 34 35 36 37 38 39 40 41 42 43 44 45 46 47 48 49 50
000
ASUS43 KOAX 031510
RWRNE

WEATHER ROUNDUP FOR NEBRASKA
NATIONAL WEATHER SERVICE OMAHA NE
1000 AM CDT SUN MAY 03 2015

NOTES: SATELLITE DATA IS BEING USED TO AUGMENT CLOUD COVER ABOVE
       12000 FEET.
       "FAIR" INDICATES FEW OR NO CLOUDS BELOW 12,000 FEET WITH NO
       SIGNIFICANT WEATHER AND/OR OBSTRUCTIONS TO VISIBILITY.

  * THESE STATIONS DO NOT REPORT WEATHER SUCH AS RAIN...SNOW OR FOG.

NEZ001>004-019>022-054>056-031600-
NEBRASKA PANHANDLE

CITY           SKY/WX    TMP DP  RH WIND       PRES   REMARKS
SCOTTSBLUFF    SUNNY     66  39  37 N14       29.91R
ALLIANCE       MOSUNNY   59  37  44 N21       29.89R
CHADRON        SUNNY     58  38  47 NE14G25   29.95R
KIMBALL        SUNNY     64  42  45 NW15      29.92R
SIDNEY         MOSUNNY   65  42  43 NW17G23   29.90R
$$

NEZ057>060-069>072-079>082-031600-
SOUTHWEST NEBRASKA

CITY           SKY/WX    TMP DP  RH WIND       PRES   REMARKS
NORTH PLATTE   MOSUNNY   68  47  46 W13       29.79S
IMPERIAL       SUNNY     74  42  31 NW15      29.83R
LEXINGTON      SUNNY     71  49  44 W8        29.78S
MCCOOK         SUNNY     69  46  43 SW7       29.81F
OGALLALA       MOSUNNY   70  44  39 W13G20    29.83R
$$

NEZ005>010-023>029-035>040-094-031600-
NORTH CENTRAL NEBRASKA

CITY           SKY/WX    TMP DP  RH WIND       PRES   REMARKS
VALENTINE      PTSUNNY   58  38  47 N16G28    29.81R
AINSWORTH      PTSUNNY   66  47  50 N22G28    29.78R
BROKEN BOW     MOSUNNY   76  44  32 NW9       29.75S
O`NEILL        SUNNY     68  51  53 NW8       29.73R
ORD            MOSUNNY   70  47  43 NW3       29.72S
THEDFORD       PTSUNNY   66  44  44 NW10G18   29.80R
$$

NEZ041-046>049-061>064-073>077-083>087-031600-
SOUTH CENTRAL NEBRASKA

CITY           SKY/WX    TMP DP  RH WIND       PRES   REMARKS
GRAND ISLAND   PTSUNNY   67  52  58 SW7       29.76R
AURORA         MOSUNNY   69  52  55 SW10      29.75R
HASTINGS       MOSUNNY   72  51  47 SW6       29.76F
HEBRON         PTSUNNY   69  53  56 SW7       29.76F
HOLDREGE       SUNNY     71  45  39 W7        29.78S
KEARNEY *      SUNNY     72  46  40 W9        29.78R
YORK           SUNNY     68  55  64 SW13      29.75R
$$

NEZ011>018-030>034-042>045-031600-
NORTHEAST NEBRASKA

CITY           SKY/WX    TMP DP  RH WIND       PRES   REMARKS
NORFOLK        SUNNY     68  56  65 SW6       29.73R
ALBION         MOSUNNY   67  57  70 S5        29.73R
BLAIR          SUNNY     68  58  70 S12       29.75S
COLUMBUS *     SUNNY     70  55  60 S13       29.74F
FREMONT        MOSUNNY   70  59  68 S12       29.74S
TEKAMAH        SUNNY     72  60  66 S17       29.74S
WAYNE          SUNNY     70  56  62 SW12      29.74S
$$

NEZ050>053-065>068-078-088>093-031600-
SOUTHEAST NEBRASKA

CITY           SKY/WX    TMP DP  RH WIND       PRES   REMARKS
LINCOLN        SUNNY     72  57  59 SW17      29.74F
OMAHA EPPLEY   PTSUNNY   70  59  68 S13       29.75S
BEATRICE       MOSUNNY   71  58  62 S16G22    29.76S
FALLS CITY     MOSUNNY   72  57  59 S21G26    29.79F
NEBRASKA CITY  MOSUNNY   70  54  56 SW20      29.77F
PLATTSMOUTH    MOSUNNY   70  58  64 S20       29.76S
$$

NEZ044-045-051>053-067-031600-
OMAHA AREA

CITY           SKY/WX    TMP DP  RH WIND       PRES   REMARKS
OMAHA EPPLEY   PTSUNNY   70  59  68 S13       29.75S
BLAIR          SUNNY     68  58  70 S12       29.75S
FREMONT        MOSUNNY   70  59  68 S12       29.74S
MILLARD        MOSUNNY   70  59  68 S12G17    29.74S
OFFUTT AFB     MOSUNNY   70  60  68 S14G22    29.74F
PLATTSMOUTH    MOSUNNY   70  58  64 S20       29.76S
WAHOO          FAIR      70  58  63 S14       29.73F
$$


USA.gov is the U.S. government's official web portal to all federal, state and local government web resources and services.